When you browse on this site, cookies collect data to enhance your experience and personalize the content and advertising you see.
Visit our Privacy Policy to learn more. By continuing to use the site, you agree to this use of cookies and data.
  • în România
  • Lista ţărilor
  • Pe 7 zile
  • Temperatura apei
  • Hartă satelitară
  • Meteo pe hartă
  • Widget-uri
  • user-avatar
    Intrare

    Meteo pe oră la Komintern

    Astăzi, 21 Mai, Marţi

    Timp Temperatura Precipitaţii Vânt Presiune Umiditate
    00:00 +10°C° 0 mm 2 m/s 762 mmHg 56%
    01:00 +10°C° 0 mm 2 m/s 762 mmHg 58%
    02:00 +9°C° 0 mm 2 m/s 762 mmHg 60%
    03:00 +10°C° 0 mm 1 m/s 762 mmHg 61%
    04:00 +11°C° 0 mm 1 m/s 762 mmHg 61%
    05:00 +12°C° 0 mm 1 m/s 762 mmHg 60%
    06:00 +12°C° 0 mm 1 m/s 763 mmHg 59%
    07:00 +13°C° 0 mm 1 m/s 763 mmHg 57%
    08:00 +14°C° 0 mm 1 m/s 763 mmHg 54%
    09:00 +16°C° 0 mm 1 m/s 763 mmHg 48%
    10:00 +18°C° 0 mm 1 m/s 763 mmHg 46%
    11:00 +19°C° 0 mm 1 m/s 763 mmHg 44%
    12:00 +20°C° 0 mm 1 m/s 763 mmHg 41%
    13:00 +20°C° 0 mm 1 m/s 763 mmHg 42%
    14:00 +20°C° 0 mm 1 m/s 762 mmHg 43%
    15:00 +20°C° 0 mm 1 m/s 762 mmHg 43%
    16:00 +20°C° 0 mm 1 m/s 762 mmHg 44%
    17:00 +20°C° 0 mm 1 m/s 762 mmHg 45%
    18:00 +20°C° 0 mm 1 m/s 761 mmHg 46%
    19:00 +19°C° 0 mm 1 m/s 761 mmHg 49%
    20:00 +17°C° 0 mm 2 m/s 761 mmHg 51%
    21:00 +15°C° 0 mm 2 m/s 761 mmHg 54%
    22:00 +15°C° 0 mm 2 m/s 762 mmHg 56%
    23:00 +15°C° 0 mm 2 m/s 762 mmHg 58%

    Mâine, 22 Mai, Miercuri

    Timp Temperatura Precipitaţii Vânt Presiune Umiditate
    00:00 +14°C° 0 mm 2 m/s 762 mmHg 59%
    01:00 +14°C° 0 mm 2 m/s 762 mmHg 60%
    02:00 +14°C° 0 mm 2 m/s 761 mmHg 61%
    03:00 +13°C° 0 mm 3 m/s 761 mmHg 62%
    04:00 +13°C° 0 mm 3 m/s 761 mmHg 60%
    05:00 +14°C° 0 mm 3 m/s 761 mmHg 59%
    06:00 +14°C° 0 mm 4 m/s 761 mmHg 57%
    07:00 +17°C° 0 mm 4 m/s 760 mmHg 52%
    08:00 +18°C° 0 mm 4 m/s 760 mmHg 47%
    09:00 +20°C° 0 mm 5 m/s 760 mmHg 42%
    10:00 +21°C° 0 mm 5 m/s 760 mmHg 41%
    11:00 +22°C° 0 mm 5 m/s 759 mmHg 39%
    12:00 +23°C° 0 mm 5 m/s 759 mmHg 38%
    13:00 +23°C° 0 mm 5 m/s 759 mmHg 38%
    14:00 +23°C° 0 mm 5 m/s 758 mmHg 38%
    15:00 +25°C° 0 mm 5 m/s 758 mmHg 39%
    16:00 +23°C° 0 mm 5 m/s 758 mmHg 42%
    17:00 +22°C° 0 mm 5 m/s 757 mmHg 44%
    18:00 +22°C° 0 mm 4 m/s 757 mmHg 47%
    19:00 +20°C° 0 mm 4 m/s 757 mmHg 49%
    20:00 +19°C° 0 mm 4 m/s 757 mmHg 52%
    21:00 +18°C° 0 mm 3 m/s 757 mmHg 54%
    22:00 +17°C° 0 mm 3 m/s 757 mmHg 54%
    23:00 +17°C° 0 mm 3 m/s 757 mmHg 54%

    Poimâine, 23 Mai, Joi

    Timp Temperatura Precipitaţii Vânt Presiune Umiditate
    00:00 +17°C° 0 mm 2 m/s 757 mmHg 54%
    01:00 +16°C° 0 mm 2 m/s 756 mmHg 55%
    02:00 +14°C° 0 mm 3 m/s 756 mmHg 56%
    03:00 +14°C° 0 mm 3 m/s 756 mmHg 57%
    04:00 +14°C° 0 mm 3 m/s 755 mmHg 57%
    05:00 +14°C° 0 mm 3 m/s 755 mmHg 56%
    06:00 +14°C° 0 mm 3 m/s 755 mmHg 56%
    07:00 +17°C° 0 mm 4 m/s 754 mmHg 50%
    08:00 +18°C° 0 mm 4 m/s 754 mmHg 44%
    09:00 +20°C° 0 mm 5 m/s 754 mmHg 39%
    10:00 +20°C° 0 mm 6 m/s 753 mmHg 41%
    11:00 +21°C° 0 mm 6 m/s 753 mmHg 44%
    12:00 +21°C° 0 mm 7 m/s 753 mmHg 46%
    13:00 +21°C° 0 mm 7 m/s 752 mmHg 53%
    14:00 +20°C° 0 mm 6 m/s 752 mmHg 59%
    15:00 +20°C° 0 mm 6 m/s 752 mmHg 65%
    16:00 +20°C° 0.1 mm 5 m/s 751 mmHg 66%
    17:00 +20°C° 0.1 mm 5 m/s 751 mmHg 66%
    18:00 +20°C° 0.1 mm 5 m/s 750 mmHg 66%
    19:00 +19°C° 0.4 mm 4 m/s 750 mmHg 71%
    20:00 +19°C° 0.4 mm 3 m/s 750 mmHg 76%
    21:00 +18°C° 0.4 mm 3 m/s 750 mmHg 81%
    22:00 +17°C° 0 mm 3 m/s 750 mmHg 83%
    23:00 +16°C° 0 mm 2 m/s 750 mmHg 84%

    24 Mai, Vineri

    Timp Temperatura Precipitaţii Vânt Presiune Umiditate
    00:00 +16°C° 0 mm 2 m/s 749 mmHg 86%
    01:00 +16°C° 0 mm 2 m/s 749 mmHg 87%
    02:00 +15°C° 0 mm 2 m/s 749 mmHg 88%
    03:00 +15°C° 0 mm 2 m/s 749 mmHg 89%
    04:00 +15°C° 0 mm 2 m/s 750 mmHg 86%
    05:00 +16°C° 0 mm 3 m/s 750 mmHg 83%
    06:00 +17°C° 0 mm 3 m/s 750 mmHg 80%
    07:00 +17°C° 0 mm 4 m/s 751 mmHg 77%
    08:00 +17°C° 0 mm 5 m/s 751 mmHg 75%
    09:00 +19°C° 0 mm 5 m/s 752 mmHg 72%
    10:00 +17°C° 0 mm 5 m/s 752 mmHg 69%
    11:00 +17°C° 0 mm 5 m/s 753 mmHg 67%
    12:00 +17°C° 0 mm 5 m/s 753 mmHg 64%
    13:00 +17°C° 0 mm 5 m/s 753 mmHg 59%
    14:00 +19°C° 0 mm 5 m/s 754 mmHg 55%
    15:00 +20°C° 0 mm 5 m/s 754 mmHg 50%
    16:00 +19°C° 0 mm 5 m/s 754 mmHg 49%
    17:00 +19°C° 0 mm 4 m/s 755 mmHg 47%
    18:00 +18°C° 0 mm 4 m/s 755 mmHg 45%
    19:00 +17°C° 0 mm 4 m/s 756 mmHg 48%
    20:00 +14°C° 0 mm 4 m/s 756 mmHg 52%
    21:00 +12°C° 0 mm 4 m/s 757 mmHg 55%
    22:00 +12°C° 0 mm 3 m/s 757 mmHg 55%
    23:00 +11°C° 0 mm 3 m/s 758 mmHg 56%

    25 Mai, Sâmbătă

    Timp Temperatura Precipitaţii Vânt Presiune Umiditate
    00:00 +10°C° 0 mm 3 m/s 758 mmHg 57%
    01:00 +9°C° 0 mm 3 m/s 758 mmHg 59%
    02:00 +9°C° 0 mm 3 m/s 758 mmHg 62%
    03:00 +8°C° 0 mm 3 m/s 758 mmHg 64%
    04:00 +9°C° 0 mm 3 m/s 759 mmHg 65%
    05:00 +10°C° 0 mm 4 m/s 759 mmHg 66%
    06:00 +10°C° 0 mm 4 m/s 759 mmHg 66%
    07:00 +12°C° 0 mm 4 m/s 759 mmHg 62%
    08:00 +13°C° 0 mm 4 m/s 759 mmHg 57%
    09:00 +15°C° 0 mm 5 m/s 759 mmHg 52%
    10:00 +16°C° 0 mm 5 m/s 759 mmHg 49%
    11:00 +17°C° 0 mm 5 m/s 759 mmHg 46%
    12:00 +19°C° 0 mm 5 m/s 758 mmHg 43%
    13:00 +20°C° 0 mm 5 m/s 758 mmHg 42%
    14:00 +21°C° 0 mm 5 m/s 757 mmHg 41%
    15:00 +21°C° 0 mm 5 m/s 757 mmHg 40%
    16:00 +21°C° 0 mm 5 m/s 757 mmHg 43%
    17:00 +21°C° 0 mm 4 m/s 756 mmHg 46%
    18:00 +20°C° 0 mm 4 m/s 756 mmHg 49%
    19:00 +19°C° 0 mm 4 m/s 756 mmHg 51%
    20:00 +18°C° 0 mm 4 m/s 756 mmHg 53%
    21:00 +17°C° 0 mm 4 m/s 755 mmHg 55%
    22:00 +16°C° 0 mm 5 m/s 755 mmHg 53%
    23:00 +15°C° 0 mm 5 m/s 755 mmHg 51%

    26 Mai, Duminică

    Timp Temperatura Precipitaţii Vânt Presiune Umiditate
    00:00 +15°C° 0 mm 5 m/s 755 mmHg 49%
    01:00 +15°C° 0.1 mm 5 m/s 755 mmHg 48%
    02:00 +15°C° 0.1 mm 5 m/s 754 mmHg 48%
    03:00 +15°C° 0.1 mm 5 m/s 753 mmHg 47%
    04:00 +14°C° 0.6 mm 5 m/s 753 mmHg 50%
    05:00 +14°C° 0.6 mm 6 m/s 753 mmHg 52%
    06:00 +14°C° 0.6 mm 6 m/s 752 mmHg 55%
    07:00 +14°C° 0.2 mm 6 m/s 752 mmHg 56%
    08:00 +15°C° 0.2 mm 7 m/s 752 mmHg 56%
    09:00 +15°C° 0.2 mm 7 m/s 751 mmHg 57%
    10:00 +17°C° 0 mm 7 m/s 751 mmHg 59%
    11:00 +20°C° 0 mm 8 m/s 750 mmHg 61%
    12:00 +21°C° 0 mm 8 m/s 750 mmHg 63%
    13:00 +22°C° 0.5 mm 8 m/s 750 mmHg 62%
    14:00 +23°C° 0.5 mm 8 m/s 749 mmHg 61%
    15:00 +24°C° 0.5 mm 8 m/s 749 mmHg 61%
    16:00 +24°C° 0.7 mm 7 m/s 748 mmHg 61%
    17:00 +24°C° 0.7 mm 7 m/s 748 mmHg 62%
    18:00 +23°C° 0.7 mm 6 m/s 748 mmHg 63%
    19:00 +22°C° 0 mm 5 m/s 748 mmHg 67%
    20:00 +21°C° 0 mm 5 m/s 748 mmHg 71%
    21:00 +19°C° 0 mm 5 m/s 748 mmHg 76%
    22:00 +19°C° 0.3 mm 5 m/s 748 mmHg 79%
    23:00 +18°C° 0.3 mm 4 m/s 748 mmHg 82%
    Arată mai mult